User: anonymous
Location: Allison's Woods
(35.8809°N, 80.8140°W)
Time: 13:30:42
(UTC-04:00)
Language:

Iridium 39 - Orbit

View from above orbital plane
View from above orbital plane
View from above satellite
View from above satellite

Ground track
Ground track

The orbit data is extracted from the following two-line orbital elements,

1 25042U 97069D   14245.45183277  .00000082  00000-0  22123-4 0  9485
2 25042 086.3919 088.0004 0001932 107.7100 252.4307 14.34216875880293
Epoch (UTC): 02 September 2014 10:50:38
Eccentricity: 0.0001932
inclination: 86.3919°
perigee height: 776 km
apogee height: 779 km
right ascension of ascending node: 88.0004°
argument of perigee: 107.7100°
revolutions per day: 14.34216875
mean anomaly at epoch: 252.4307°
orbit number at epoch: 88029

The dashed part of the orbit path shows where the satellite is in the earth's shadow,  

DLR